2022-096B (53371 NORAD) Tracking and Keplerian Element Data

This shows tracking and keplerian element data for the satellite.

Feedback or suggestion? Click here.




ElementValue
Catalog53371
Name2022-096B
Epoch Orbit1583
Epoch Day325.06159742
Epoch Year2022
RAAN225.7734
Inclination97.4276
Eccentricity0.0002118
Argument of Perigee108.6776
Mean Anonmoly4.6729
Mean Motion15.26003676
Decay Rate7.183E-05
L11 53371U 22096B 22325.06159742 .00007183 00000+0 28213-3 0 9993
L22 53371 97.4276 225.7734 0002118 108.6776 4.6729 15.26003676 15834



Live tracking and technical data element details for 2022-096B (NORAD 53371). 2022-096B can be tracked NOW for your location showing map with azimuth and elevation plus other details from your city location.







IsCatalogInMostPopularTable: catalog: 53371, numindb: 8
Update: records affected: 1



GetName: 53371 2022-096B

Hit Count: updated at: Thu, 08 Dec 2022 19:45:46 GMT